Weather History for KCID - January, 2014

Change the Weather History Date:

Monday, January 6, 2014

  Actual Average Record
Temperature  
Mean Temperature -12 °F 20 °F  
Max Temperature -8 °F 28 °F 53 °F (1961)
Min Temperature -17 °F 11 °F -21 °F (1910)
Degree Days  
Heating Degree Days 77 46  
Month to date heating degree days 364 271  
Since 1 July heating degree days 3282 3010  
Cooling Degree Days 0 0  
Month to date cooling degree days 0 0  
Year to date cooling degree days 0 0  
Moisture  
Dew Point -22 °F    
Average Humidity 67    
Maximum Humidity 79    
Minimum Humidity 54    
Precipitation  
Precipitation 0.00 in 0.03 in - ()
Month to date precipitation 0.07 0.19  
Year to date precipitation 0.07 0.19  
Sea Level Pressure  
Sea Level Pressure 30.36 in    
Wind  
Wind Speed 19 mph (WNW)    
Max Wind Speed 32 mph    
Max Gust Speed 38 mph    
Visibility 10 miles    
Events      
T = Trace of Precipitation, MM = Missing Value Source: NWS Daily Summary

Daily Weather History Graph

Daily Weather History Graph

Search for Another Location

Airport or City:

Trip Planner

Search our weather history database for the weather conditions in past years. The results will help you decide how hot, cold, wet, or windy it might be!

Date:

Astronomy

Jan. 06, 2014 Rise Set
Actual Time 7:34 AM CST 4:51 PM CST
Civil Twilight 7:03 AM CST 5:22 PM CST
Nautical Twilight 6:28 AM CST 5:57 PM CST
Astronomical Twilight 5:54 AM CST 6:31 PM CST
Moon 10:44 AM CST (1/6) 11:31 PM CST (1/6)
Length of Visible Light 10h 19m
Length of Day
9h 16m
Waxing Crescent, 35% of the Moon is Illuminated
Jan 6
Waxing Crescent
Jan 7
First Quarter
Jan 15
Full
Jan 23
Last Quarter
Jan 30
New

Hourly Weather History & Observations

Time (CST) Temp. Windchill Dew Point Humidity Pressure Visibility Wind Dir Wind Speed Gust Speed Precip Events Conditions
12:37 AM -13.0 °F -41.6 °F -23.8 °F 59% 30.29 in 10.0 mi NW 25.3 mph 36.8 mph N/A   Mostly Cloudy
12:44 AM -13.0 °F -41.1 °F -23.8 °F 59% 30.29 in 10.0 mi NW 24.2 mph 35.7 mph N/A   Scattered Clouds
12:52 AM -13.0 °F -42.1 °F -24.0 °F 58% 30.37 in 10.0 mi NW 26.5 mph 32.2 mph N/A   Partly Cloudy
1:25 AM -14.8 °F -40.5 °F -23.8 °F 64% 30.29 in 10.0 mi WNW 18.4 mph - N/A   Mostly Cloudy
1:48 AM -14.8 °F -42.4 °F -25.6 °F 58% 30.29 in 10.0 mi NW 21.9 mph 28.8 mph N/A   Scattered Clouds
1:52 AM -14.1 °F -42.0 °F -25.1 °F 58% 30.37 in 10.0 mi WNW 23.0 mph 29.9 mph N/A   Partly Cloudy
2:31 AM -14.8 °F -42.9 °F -23.8 °F 64% 30.30 in 10.0 mi WNW 23.0 mph 28.8 mph N/A   Mostly Cloudy
2:52 AM -15.0 °F -42.6 °F -25.1 °F 61% 30.38 in 10.0 mi NW 21.9 mph 31.1 mph N/A   Mostly Cloudy
3:00 AM -14.8 °F -42.9 °F -25.6 °F 58% 30.30 in 10.0 mi NW 23.0 mph 31.1 mph N/A   Scattered Clouds
3:52 AM -16.1 °F -44.6 °F -27.0 °F 58% 30.38 in 10.0 mi WNW 23.0 mph 28.8 mph N/A   Clear
4:52 AM -16.1 °F -42.1 °F -26.0 °F 61% 30.38 in 10.0 mi WNW 18.4 mph - N/A   Clear
5:14 AM -16.6 °F -42.9 °F -23.8 °F 70% 30.30 in 6.0 mi WNW 18.4 mph - N/A   Haze
5:52 AM -16.1 °F -46.7 °F -26.0 °F 61% 30.38 in 9.0 mi WNW 27.6 mph 33.4 mph N/A   Overcast
5:54 AM -16.6 °F -46.9 °F -25.6 °F 64% 30.30 in 10.0 mi WNW 26.5 mph 33.4 mph N/A   Overcast
6:52 AM -17.0 °F -45.8 °F -27.0 °F 60% 30.39 in 10.0 mi WNW 23.0 mph 29.9 mph N/A   Overcast
6:59 AM -16.6 °F -44.8 °F -27.4 °F 58% 30.31 in 10.0 mi NW 21.9 mph 32.2 mph N/A   Partly Cloudy
7:52 AM -17.0 °F -44.6 °F -27.0 °F 60% 30.40 in 10.0 mi WNW 20.7 mph 29.9 mph N/A   Clear
8:52 AM -16.1 °F -42.8 °F -26.0 °F 61% 30.42 in 9.0 mi WNW 19.6 mph 29.9 mph N/A   Partly Cloudy
9:52 AM -15.0 °F -44.8 °F -26.0 °F 58% 30.42 in 10.0 mi WNW 26.5 mph 32.2 mph N/A   Partly Cloudy
10:52 AM -14.1 °F -42.5 °F -23.1 °F 64% 30.42 in 10.0 mi WNW 24.2 mph - N/A   Partly Cloudy
11:52 AM -11.9 °F -37.4 °F -22.0 °F 61% 30.40 in 10.0 mi WNW 19.6 mph 28.8 mph N/A   Partly Cloudy
12:52 PM -11.0 °F -37.9 °F -20.9 °F 62% 30.38 in 10.0 mi WNW 23.0 mph 28.8 mph N/A   Partly Cloudy
1:52 PM -9.0 °F -34.2 °F -18.9 °F 62% 30.38 in 7.0 mi West 20.7 mph - N/A   Partly Cloudy
2:52 PM -8.0 °F -33.9 °F -18.0 °F 61% 30.39 in 9.0 mi West 23.0 mph - N/A   Partly Cloudy
3:52 PM -8.0 °F -29.6 °F -17.0 °F 65% 30.39 in 7.0 mi West 15.0 mph - N/A   Partly Cloudy
4:52 PM -8.0 °F -28.0 °F -16.1 °F 68% 30.39 in 9.0 mi West 12.7 mph - N/A   Partly Cloudy
5:52 PM -9.0 °F -27.4 °F -16.1 °F 71% 30.38 in 10.0 mi West 10.4 mph - N/A   Partly Cloudy
6:52 PM -9.0 °F -27.4 °F -15.0 °F 75% 30.38 in 9.0 mi West 10.4 mph - N/A   Partly Cloudy
7:52 PM -8.0 °F -26.1 °F -16.1 °F 68% 30.38 in 10.0 mi West 10.4 mph - N/A   Clear
8:52 PM -8.0 °F -27.1 °F -16.1 °F 68% 30.37 in 10.0 mi West 11.5 mph - N/A   Clear
9:52 PM -8.0 °F -28.0 °F -16.1 °F 68% 30.36 in 10.0 mi West 12.7 mph - N/A   Clear
10:52 PM -8.0 °F -27.1 °F -16.1 °F 68% 30.35 in 10.0 mi West 11.5 mph - N/A   Clear
11:52 PM -11.0 °F -28.8 °F -18.0 °F 71% 30.35 in 10.0 mi West 9.2 mph - N/A   Clear